Weather History for Winfield, KS

Change the Weather History Date:

Tuesday, December 25, 2012

  Actual Average Record
Temperature  
Mean Temperature 22 °F -  
Max Temperature 27 °F 42 °F 60 °F (2005)
Min Temperature 15 °F 22 °F 7 °F (2002)
Degree Days  
Heating Degree Days 43    
Moisture  
Dew Point 12 °F    
Average Humidity 66    
Maximum Humidity 80    
Minimum Humidity 57    
Precipitation  
Precipitation 0.00 in - - ()
Sea Level Pressure  
Sea Level Pressure 30.16 in    
Wind  
Wind Speed 20 mph (NNE)    
Max Wind Speed 26 mph    
Max Gust Speed 38 mph    
Visibility 9 miles    
Events      
Averages and records for this station are not official NWS values.
T = Trace of Precipitation, MM = Missing Value Source: NWS Daily Summary

Daily Weather History Graph

Daily Weather History Graph

Search for Another Location

Airport:

Trip Planner

Search our weather history database for the weather conditions in past years. The results will help you decide how hot, cold, wet, or windy it might be!

Date:

Astronomy

Dec. 25, 2012 Rise Set
Actual Time 7:40 AM CST 5:17 PM CST
Civil Twilight 7:11 AM CST 5:46 PM CST
Nautical Twilight 6:38 AM CST 6:18 PM CST
Astronomical Twilight 6:06 AM CST 6:50 PM CST
Moon 3:25 PM CST (12/25) 5:14 AM CST (12/25)
Length of Visible Light 10h 35m
Length of Day
9h 36m
Waxing Gibbous, 94% of the Moon is Illuminated
Dec 25
Waxing Gibbous
Dec 28
Full
Jan 4
Last Quarter
Jan 11
New
Jan 18
First Quarter

Hourly Weather History & Observations

Time (CST) Temp. Windchill Dew Point Humidity Pressure Visibility Wind Dir Wind Speed Gust Speed Precip Events Conditions
12:54 AM 23.0 °F 8.0 °F 14.0 °F 68% 30.06 in 7.0 mi NE 20.7 mph 28.8 mph N/A   Mostly Cloudy
1:54 AM 23.0 °F 10.1 °F 14.0 °F 68% 30.07 in 9.0 mi NE 15.0 mph 27.6 mph N/A   Scattered Clouds
2:54 AM 23.0 °F 8.7 °F 14.0 °F 68% 30.06 in 10.0 mi NE 18.4 mph 27.6 mph N/A   Scattered Clouds
3:54 AM 23.0 °F 10.6 °F 14.0 °F 68% 30.09 in 9.0 mi NE 13.8 mph 26.5 mph N/A   Overcast
4:54 AM 23.0 °F 8.3 °F 14.0 °F 68% 30.05 in 10.0 mi NNE 19.6 mph 27.6 mph N/A   Overcast
6:54 AM 23.0 °F 8.0 °F 14.0 °F 68% 30.11 in 10.0 mi NE 20.7 mph 27.6 mph N/A   Overcast
7:54 AM 21.9 °F 5.8 °F 14.0 °F 72% 30.11 in 9.0 mi NE 23.0 mph 38.0 mph N/A   Mostly Cloudy
8:35 AM 21.2 °F 4.9 °F 15.8 °F 80% 30.06 in 8.0 mi NNE 23.0 mph 31.1 mph N/A   Mostly Cloudy
8:54 AM 21.9 °F 5.8 °F 15.1 °F 75% 30.12 in 7.0 mi NNE 23.0 mph 32.2 mph N/A   Overcast
9:54 AM 23.0 °F 7.2 °F 16.0 °F 74% 30.13 in 7.0 mi NE 23.0 mph 34.5 mph N/A   Overcast
10:54 AM 23.0 °F 8.7 °F 16.0 °F 74% 30.14 in 10.0 mi NNE 18.4 mph 27.6 mph N/A   Overcast
11:54 AM 23.0 °F 7.6 °F 15.1 °F 72% 30.18 in 10.0 mi NNE 21.9 mph 28.8 mph N/A   Overcast
12:54 PM 24.1 °F 8.7 °F 15.1 °F 69% 30.17 in 10.0 mi NNE 23.0 mph 29.9 mph N/A   Overcast
1:43 PM 26.6 °F 12.7 °F 15.8 °F 64% 30.10 in 10.0 mi NNE 20.7 mph 29.9 mph N/A   Overcast
1:54 PM 27.0 °F 12.5 °F 15.1 °F 61% 30.15 in 9.0 mi NNE 23.0 mph 33.4 mph N/A   Overcast
2:54 PM 27.0 °F 12.8 °F 15.1 °F 61% 30.18 in 10.0 mi NNE 21.9 mph 31.1 mph N/A   Clear
3:54 PM 25.0 °F 10.2 °F 14.0 °F 63% 30.21 in 10.0 mi North 21.9 mph 34.5 mph N/A   Overcast
4:54 PM 21.9 °F 4.8 °F 10.0 °F 60% 30.21 in 10.0 mi North 26.5 mph 33.4 mph N/A   Mostly Cloudy
5:54 PM 21.0 °F 4.3 °F 9.0 °F 60% 30.22 in 10.0 mi North 24.2 mph 34.5 mph N/A   Overcast
6:54 PM 19.9 °F 3.9 °F 7.0 °F 57% 30.22 in 10.0 mi North 20.7 mph 28.8 mph N/A   Partly Cloudy
7:54 PM 19.9 °F 4.3 °F 7.0 °F 57% 30.24 in 10.0 mi North 19.6 mph 26.5 mph N/A   Clear
8:54 PM 19.0 °F 4.5 °F 7.0 °F 59% 30.25 in 10.0 mi North 16.1 mph - N/A   Clear
9:54 PM 18.0 °F 0.6 °F 7.0 °F 62% 30.27 in 10.0 mi North 23.0 mph 28.8 mph N/A   Clear
10:54 PM 17.1 °F 1.5 °F 6.1 °F 62% 30.29 in 10.0 mi North 17.3 mph 24.2 mph N/A   Clear
11:54 PM 15.1 °F -0.6 °F 6.1 °F 68% 30.31 in 10.0 mi North 16.1 mph - N/A   Clear